| time (UTC) | temp C | wind direction | speed KPH | gust KPH | rain 1hr cm | rain 24hr cm | rain mn cm | humidity % | barometer mb |
| 20260509173904 | 16 | 279 | 8.0 | 19.3 | 0.00 | 0.00 | 0.00 | 64 | 1004.5 |
| 20260509173403 | 16 | 321 | 8.0 | 22.5 | 0.00 | 0.00 | 0.00 | 63 | 1004.6 |
| 20260509172904 | 16 | 278 | 14.5 | 22.5 | 0.00 | 0.00 | 0.00 | 64 | 1004.6 |
| 20260509172403 | 16 | 318 | 9.7 | 19.3 | 0.00 | 0.00 | 0.00 | 64 | 1004.6 |
| 20260509171903 | 16 | 295 | 14.5 | 20.9 | 0.00 | 0.00 | 0.00 | 62 | 1004.6 |
| 20260509171404 | 16 | 276 | 11.3 | 19.3 | 0.00 | 0.00 | 0.00 | 65 | 1004.6 |
| 20260509170903 | 17 | 296 | 9.7 | 20.9 | 0.00 | 0.00 | 0.00 | 64 | 1004.7 |
| 20260509170404 | 17 | 310 | 11.3 | 19.3 | 0.00 | 0.00 | 0.00 | 62 | 1004.7 |
| 20260509165904 | 17 | 231 | 6.4 | 16.1 | 0.00 | 0.00 | 0.00 | 64 | 1004.7 |
| 20260509165404 | 16 | 264 | 8.0 | 16.1 | 0.00 | 0.00 | 0.00 | 64 | 1004.8 |
| 20260509164904 | 16 | 276 | 8.0 | 25.7 | 0.00 | 0.00 | 0.00 | 63 | 1004.9 |
| 20260509164404 | 17 | 270 | 4.8 | 12.9 | 0.00 | 0.00 | 0.00 | 62 | 1005.0 |
| 20260509163903 | 16 | 253 | 8.0 | 19.3 | 0.00 | 0.00 | 0.00 | 65 | 1005.1 |
| 20260509163403 | 16 | 262 | 4.8 | 11.3 | 0.00 | 0.00 | 0.00 | 65 | 1005.2 |
| 20260509162403 | 16 | 223 | 4.8 | 9.7 | 0.00 | 0.00 | 0.00 | 65 | 1005.2 |
| 20260509161904 | 16 | 287 | 6.4 | 11.3 | 0.00 | 0.00 | 0.00 | 65 | 1005.2 |
| 20260509161403 | 16 | 242 | 6.4 | 12.9 | 0.00 | 0.00 | 0.00 | 63 | 1005.2 |
| 20260509160904 | 16 | 273 | 8.0 | 11.3 | 0.00 | 0.00 | 0.00 | 64 | 1005.3 |
| 20260509160403 | 16 | 253 | 4.8 | 14.5 | 0.00 | 0.00 | 0.00 | 65 | 1005.2 |
| 20260509155404 | 15 | 222 | 8.0 | 12.9 | 0.00 | 0.00 | 0.00 | 66 | 1005.4 |
| 20260509154903 | 15 | 227 | 6.4 | 14.5 | 0.00 | 0.00 | 0.00 | 67 | 1005.5 |
| 20260509154404 | 15 | 270 | 8.0 | 12.9 | 0.00 | 0.00 | 0.00 | 66 | 1005.5 |
| 20260509153903 | 15 | 256 | 6.4 | 9.7 | 0.00 | 0.00 | 0.00 | 67 | 1005.6 |
| 20260509153403 | 15 | 295 | 6.4 | 11.3 | 0.00 | 0.00 | 0.00 | 67 | 1005.7 |
| 20260509152904 | 15 | 252 | 8.0 | 14.5 | 0.00 | 0.00 | 0.00 | 67 | 1005.7 |
| 20260509152404 | 15 | 295 | 9.7 | 16.1 | 0.00 | 0.00 | 0.00 | 70 | 1005.8 |
| 20260509151904 | 15 | 277 | 6.4 | 14.5 | 0.00 | 0.00 | 0.00 | 72 | 1005.9 |
| 20260509151404 | 15 | 268 | 4.8 | 9.7 | 0.00 | 0.00 | 0.00 | 69 | 1005.9 |
| 20260509150904 | 15 | 271 | 6.4 | 9.7 | 0.00 | 0.00 | 0.00 | 68 | 1005.9 |
| 20260509150403 | 14 | 305 | 8.0 | 16.1 | 0.00 | 0.00 | 0.00 | 69 | 1005.8 |
| 20260509145904 | 14 | 254 | 6.4 | 11.3 | 0.00 | 0.00 | 0.00 | 70 | 1005.8 |
| 20260509145403 | 14 | 255 | 4.8 | 11.3 | 0.00 | 0.00 | 0.00 | 70 | 1005.9 |
| 20260509144403 | 14 | 261 | 3.2 | 12.9 | 0.00 | 0.00 | 0.00 | 71 | 1005.9 |
| 20260509143903 | 15 | 273 | 6.4 | 12.9 | 0.00 | 0.00 | 0.00 | 72 | 1005.9 |
| 20260509143403 | 14 | 255 | 6.4 | 11.3 | 0.00 | 0.00 | 0.00 | 73 | 1006.0 |
| 20260509142904 | 13 | 259 | 4.8 | 8.0 | 0.00 | 0.00 | 0.00 | 75 | 1006.1 |
| 20260509142403 | 13 | 249 | 4.8 | 9.7 | 0.00 | 0.00 | 0.00 | 74 | 1006.1 |
| 20260509141904 | 13 | 239 | 4.8 | 12.9 | 0.00 | 0.00 | 0.00 | 74 | 1006.1 |
| 20260509140903 | 13 | 234 | 4.8 | 9.7 | 0.00 | 0.00 | 0.00 | 75 | 1006.2 |
| 20260509140404 | 13 | 258 | 3.2 | 9.7 | 0.00 | 0.00 | 0.00 | 76 | 1006.3 |
| 20260509135904 | 13 | 283 | 11.3 | 19.3 | 0.00 | 0.00 | 0.00 | 76 | 1006.3 |
| 20260509135404 | 13 | 297 | 4.8 | 12.9 | 0.00 | 0.00 | 0.00 | 76 | 1006.3 |
| 20260509134903 | 13 | 305 | 3.2 | 9.7 | 0.00 | 0.00 | 0.00 | 76 | 1006.3 |
| 20260509134404 | 13 | 254 | 4.8 | 8.0 | 0.00 | 0.00 | 0.00 | 77 | 1006.3 |
| 20260509133903 | 13 | 264 | 4.8 | 11.3 | 0.00 | 0.00 | 0.00 | 76 | 1006.4 |
| 20260509132904 | 13 | 230 | 4.8 | 11.3 | 0.00 | 0.00 | 0.00 | 77 | 1006.4 |
| 20260509132403 | 12 | 252 | 4.8 | 11.3 | 0.00 | 0.00 | 0.00 | 77 | 1006.5 |
| 20260509131904 | 12 | 259 | 3.2 | 8.0 | 0.00 | 0.00 | 0.00 | 78 | 1006.5 |
| 20260509131403 | 12 | 224 | 4.8 | 12.9 | 0.00 | 0.00 | 0.00 | 78 | 1006.5 |
| 20260509130903 | 12 | 216 | 8.0 | 12.9 | 0.00 | 0.00 | 0.00 | 78 | 1006.5 |
| 20260509130404 | 12 | 214 | 4.8 | 9.7 | 0.00 | 0.00 | 0.00 | 79 | 1006.6 |
| 20260509125404 | 11 | 233 | 4.8 | 14.5 | 0.00 | 0.00 | 0.00 | 79 | 1006.6 |
| 20260509124903 | 11 | 226 | 4.8 | 11.3 | 0.00 | 0.00 | 0.00 | 80 | 1006.6 |
| 20260509124404 | 11 | 213 | 8.0 | 12.9 | 0.00 | 0.00 | 0.00 | 80 | 1006.7 |
| 20260509123903 | 11 | 249 | 3.2 | 8.0 | 0.00 | 0.00 | 0.00 | 80 | 1006.8 |
| 20260509123404 | 11 | 233 | 3.2 | 9.7 | 0.00 | 0.00 | 0.00 | 81 | 1006.8 |
| 20260509122904 | 11 | 198 | 4.8 | 11.3 | 0.00 | 0.00 | 0.00 | 81 | 1006.8 |
| 20260509122404 | 10 | 226 | 3.2 | 11.3 | 0.00 | 0.00 | 0.00 | 82 | 1006.9 |
| 20260509121904 | 10 | 209 | 4.8 | 11.3 | 0.00 | 0.00 | 0.00 | 83 | 1006.9 |
| 20260509121403 | 10 | 211 | 4.8 | 8.0 | 0.00 | 0.00 | 0.00 | 84 | 1006.9 |
| 20260509120903 | 10 | 215 | 4.8 | 8.0 | 0.00 | 0.00 | 0.00 | 83 | 1007.0 |
| 20260509115404 | 8 | 207 | 6.4 | 8.0 | 0.00 | 0.03 | 0.00 | 84 | 1006.8 |
| 20260509114904 | 8 | 211 | 4.8 | 8.0 | 0.00 | 0.03 | 0.00 | 85 | 1006.8 |
| 20260509114404 | 8 | 210 | 4.8 | 8.0 | 0.00 | 0.03 | 0.00 | 86 | 1006.9 |
| 20260509113404 | 7 | 207 | 1.6 | 4.8 | 0.00 | 0.05 | 0.00 | 86 | 1006.9 |
| 20260509112904 | 7 | 207 | 0.0 | 0.0 | 0.00 | 0.08 | 0.00 | 85 | 1006.9 |
| 20260509112404 | 7 | 207 | 0.0 | 0.0 | 0.00 | 0.10 | 0.00 | 85 | 1007.0 |
| 20260509111904 | 6 | 207 | 0.0 | 0.0 | 0.00 | 0.13 | 0.00 | 84 | 1007.1 |
| 20260509110904 | 7 | 207 | 0.0 | 0.0 | 0.00 | 0.15 | 0.00 | 83 | 1007.2 |
| 20260509110404 | 7 | 207 | 0.0 | 0.0 | 0.00 | 0.15 | 0.00 | 83 | 1007.2 |
| 20260509105904 | 7 | 207 | 0.0 | 0.0 | 0.00 | 0.15 | 0.00 | 82 | 1007.2 |
| 20260509105404 | 7 | 207 | 0.0 | 1.6 | 0.00 | 0.15 | 0.00 | 82 | 1007.3 |
| 20260509104904 | 7 | 207 | 0.0 | 0.0 | 0.00 | 0.15 | 0.00 | 82 | 1007.4 |
| 20260509104404 | 7 | 207 | 0.0 | 0.0 | 0.00 | 0.15 | 0.00 | 82 | 1007.3 |
| 20260509103904 | 7 | 207 | 0.0 | 1.6 | 0.00 | 0.15 | 0.00 | 82 | 1007.2 |
| 20260509103404 | 7 | 207 | 0.0 | 1.6 | 0.00 | 0.15 | 0.00 | 82 | 1007.1 |
| 20260509102404 | 7 | 207 | 1.6 | 3.2 | 0.00 | 0.15 | 0.00 | 82 | 1007.1 |
| 20260509101904 | 6 | 207 | 1.6 | 3.2 | 0.00 | 0.15 | 0.00 | 81 | 1007.0 |
| 20260509101403 | 6 | 210 | 1.6 | 3.2 | 0.00 | 0.15 | 0.00 | 81 | 1007.0 |
| 20260509100903 | 6 | 210 | 1.6 | 3.2 | 0.00 | 0.15 | 0.00 | 80 | 1007.0 |
| 20260509100404 | 6 | 205 | 1.6 | 3.2 | 0.00 | 0.15 | 0.00 | 80 | 1007.0 |
| 20260509095404 | 6 | 205 | 1.6 | 3.2 | 0.00 | 0.15 | 0.00 | 79 | 1007.0 |
| 20260509094903 | 6 | 205 | 3.2 | 3.2 | 0.00 | 0.15 | 0.00 | 78 | 1007.0 |
| 20260509094403 | 6 | 210 | 1.6 | 3.2 | 0.00 | 0.15 | 0.00 | 78 | 1007.0 |
| 20260509093904 | 6 | 210 | 1.6 | 3.2 | 0.00 | 0.15 | 0.00 | 78 | 1007.1 |
| 20260509093403 | 6 | 215 | 1.6 | 3.2 | 0.00 | 0.15 | 0.00 | 78 | 1007.1 |
| 20260509092904 | 6 | 211 | 1.6 | 3.2 | 0.00 | 0.15 | 0.00 | 78 | 1007.1 |
| 20260509092403 | 6 | 211 | 1.6 | 3.2 | 0.00 | 0.15 | 0.00 | 77 | 1007.0 |
| 20260509091904 | 6 | 206 | 1.6 | 3.2 | 0.00 | 0.15 | 0.00 | 77 | 1007.0 |
| 20260509090904 | 6 | 210 | 3.2 | 3.2 | 0.00 | 0.15 | 0.00 | 76 | 1007.1 |
| 20260509090404 | 5 | 209 | 1.6 | 3.2 | 0.00 | 0.15 | 0.00 | 75 | 1007.2 |
| 20260509085903 | 5 | 212 | 3.2 | 3.2 | 0.00 | 0.15 | 0.00 | 75 | 1007.2 |
| 20260509085403 | 5 | 208 | 1.6 | 3.2 | 0.00 | 0.15 | 0.00 | 75 | 1007.2 |
| 20260509083903 | 5 | 206 | 0.0 | 1.6 | 0.00 | 0.15 | 0.00 | 76 | 1007.3 |
| 20260509082904 | 4 | 200 | 1.6 | 1.6 | 0.00 | 0.15 | 0.00 | 77 | 1007.4 |
| 20260509082404 | 4 | 195 | 0.0 | 0.0 | 0.00 | 0.15 | 0.00 | 77 | 1007.3 |
| 20260509081404 | 4 | 195 | 0.0 | 0.0 | 0.00 | 0.15 | 0.00 | 76 | 1007.4 |
| 20260509080904 | 4 | 195 | 0.0 | 0.0 | 0.00 | 0.15 | 0.00 | 75 | 1007.4 |
| 20260509080403 | 4 | 195 | 0.0 | 0.0 | 0.00 | 0.15 | 0.00 | 75 | 1007.5 |
| 20260509075903 | 4 | 195 | 0.0 | 0.0 | 0.00 | 0.15 | 0.00 | 76 | 1007.5 |
| 20260509075403 | 4 | 195 | 0.0 | 0.0 | 0.00 | 0.15 | 0.00 | 76 | 1007.5 |
| 20260509074904 | 4 | 195 | 0.0 | 0.0 | 0.00 | 0.15 | 0.00 | 75 | 1007.5 |
| 20260509074404 | 4 | 195 | 0.0 | 0.0 | 0.00 | 0.15 | 0.00 | 76 | 1007.7 |
| 20260509073904 | 4 | 195 | 0.0 | 0.0 | 0.00 | 0.15 | 0.00 | 75 | 1007.7 |
| 20260509073404 | 4 | 195 | 0.0 | 0.0 | 0.00 | 0.15 | 0.00 | 75 | 1007.7 |
| 20260509072903 | 4 | 195 | 0.0 | 0.0 | 0.00 | 0.15 | 0.00 | 75 | 1007.7 |
| 20260509072403 | 4 | 195 | 0.0 | 0.0 | 0.00 | 0.15 | 0.00 | 74 | 1007.7 |
| 20260509071903 | 4 | 195 | 0.0 | 1.6 | 0.00 | 0.15 | 0.00 | 73 | 1007.7 |
| 20260509071403 | 4 | 195 | 0.0 | 0.0 | 0.00 | 0.15 | 0.00 | 72 | 1007.8 |
| 20260509070903 | 4 | 195 | 0.0 | 0.0 | 0.00 | 0.15 | 0.00 | 72 | 1007.8 |
| 20260509065903 | 4 | 195 | 0.0 | 0.0 | 0.00 | 0.15 | 0.00 | 73 | 1007.9 |
| 20260509065403 | 4 | 195 | 0.0 | 0.0 | 0.00 | 0.15 | 0.00 | 73 | 1007.9 |
| 20260509064904 | 4 | 195 | 0.0 | 0.0 | 0.00 | 0.15 | 0.00 | 73 | 1008.0 |
| 20260509063904 | 5 | 195 | 0.0 | 0.0 | 0.00 | 0.15 | 0.00 | 71 | 1008.0 |
| 20260509063404 | 5 | 195 | 0.0 | 0.0 | 0.00 | 0.15 | 0.00 | 71 | 1008.1 |
| 20260509062903 | 5 | 195 | 0.0 | 0.0 | 0.00 | 0.15 | 0.00 | 70 | 1008.2 |
| 20260509062403 | 5 | 195 | 0.0 | 1.6 | 0.00 | 0.15 | 0.00 | 69 | 1008.4 |
| 20260509061903 | 5 | 195 | 0.0 | 1.6 | 0.00 | 0.15 | 0.00 | 70 | 1008.4 |
| 20260509061403 | 5 | 204 | 1.6 | 3.2 | 0.00 | 0.15 | 0.00 | 70 | 1008.5 |
| 20260509060904 | 5 | 206 | 1.6 | 3.2 | 0.00 | 0.15 | 0.00 | 71 | 1008.6 |
| 20260509060404 | 4 | 278 | 1.6 | 1.6 | 0.00 | 0.15 | 0.00 | 73 | 1008.7 |
| 20260509055904 | 4 | 287 | 0.0 | 1.6 | 0.00 | 0.15 | 0.00 | 74 | 1008.7 |
| 20260509054904 | 4 | 281 | 0.0 | 1.6 | 0.00 | 0.15 | 0.00 | 74 | 1008.7 |
| 20260509053904 | 5 | 194 | 0.0 | 0.0 | 0.00 | 0.15 | 0.00 | 69 | 1008.9 |
| 20260509053404 | 5 | 194 | 0.0 | 0.0 | 0.00 | 0.15 | 0.00 | 69 | 1009.0 |
| 20260509052403 | 5 | 194 | 0.0 | 0.0 | 0.00 | 0.15 | 0.00 | 71 | 1009.0 |
| 20260509051903 | 5 | 194 | 0.0 | 0.0 | 0.00 | 0.15 | 0.00 | 71 | 1009.0 |
| 20260509051403 | 5 | 194 | 0.0 | 0.0 | 0.00 | 0.15 | 0.00 | 69 | 1009.1 |
| 20260509050904 | 5 | 194 | 0.0 | 0.0 | 0.00 | 0.15 | 0.00 | 69 | 1009.2 |
| 20260509050404 | 5 | 194 | 0.0 | 0.0 | 0.00 | 0.15 | 0.00 | 70 | 1009.2 |
| 20260509045903 | 5 | 194 | 0.0 | 1.6 | 0.00 | 0.15 | 0.00 | 68 | 1009.2 |
| 20260509045404 | 5 | 193 | 0.0 | 1.6 | 0.00 | 0.15 | 0.00 | 69 | 1009.3 |
| 20260509043903 | 5 | 199 | 1.6 | 3.2 | 0.00 | 0.15 | 0.00 | 68 | 1009.5 |
| 20260509042404 | 5 | 198 | 0.0 | 1.6 | 0.00 | 0.18 | 0.00 | 68 | 1009.6 |
| 20260509041904 | 5 | 198 | 0.0 | 0.0 | 0.00 | 0.18 | 0.00 | 68 | 1009.5 |
| 20260509041404 | 6 | 200 | 1.6 | 3.2 | 0.00 | 0.18 | 0.00 | 66 | 1009.6 |
| 20260509040404 | 6 | 202 | 3.2 | 4.8 | 0.00 | 0.18 | 0.00 | 65 | 1009.6 |
| 20260509035904 | 6 | 205 | 3.2 | 3.2 | 0.00 | 0.18 | 0.18 | 65 | 1009.7 |
| 20260509035403 | 6 | 202 | 1.6 | 3.2 | 0.00 | 0.18 | 0.18 | 64 | 1009.9 |
| 20260509034903 | 6 | 205 | 1.6 | 3.2 | 0.00 | 0.18 | 0.18 | 65 | 1009.8 |
| 20260509034403 | 6 | 207 | 1.6 | 3.2 | 0.00 | 0.18 | 0.18 | 65 | 1009.9 |
| 20260509033404 | 6 | 204 | 1.6 | 3.2 | 0.00 | 0.18 | 0.18 | 65 | 1009.9 |
| 20260509032904 | 6 | 200 | 1.6 | 3.2 | 0.00 | 0.18 | 0.18 | 64 | 1009.9 |
| 20260509032404 | 6 | 200 | 3.2 | 3.2 | 0.00 | 0.18 | 0.18 | 64 | 1010.0 |
| 20260509031903 | 6 | 197 | 1.6 | 1.6 | 0.00 | 0.18 | 0.18 | 65 | 1010.0 |
| 20260509031403 | 6 | 197 | 1.6 | 1.6 | 0.00 | 0.18 | 0.18 | 65 | 1010.0 |
| 20260509030903 | 7 | 204 | 1.6 | 1.6 | 0.00 | 0.18 | 0.18 | 65 | 1010.1 |
| 20260509030403 | 7 | 204 | 1.6 | 3.2 | 0.00 | 0.18 | 0.18 | 65 | 1010.1 |
| 20260509025904 | 7 | 205 | 3.2 | 3.2 | 0.00 | 0.18 | 0.18 | 65 | 1010.1 |
| 20260509025404 | 7 | 205 | 3.2 | 3.2 | 0.00 | 0.18 | 0.18 | 65 | 1010.0 |
| 20260509024903 | 7 | 207 | 3.2 | 3.2 | 0.00 | 0.18 | 0.18 | 64 | 1010.1 |
| 20260509024404 | 7 | 206 | 3.2 | 3.2 | 0.00 | 0.18 | 0.18 | 64 | 1010.1 |
| 20260509023903 | 6 | 209 | 1.6 | 3.2 | 0.00 | 0.18 | 0.18 | 64 | 1010.1 |
| 20260509023404 | 6 | 205 | 0.0 | 1.6 | 0.00 | 0.18 | 0.18 | 65 | 1010.1 |
| 20260509022904 | 6 | 205 | 1.6 | 1.6 | 0.00 | 0.18 | 0.18 | 66 | 1010.1 |
| 20260509022404 | 6 | 204 | 0.0 | 0.0 | 0.00 | 0.18 | 0.18 | 66 | 1009.9 |
| 20260509021903 | 6 | 204 | 0.0 | 0.0 | 0.00 | 0.18 | 0.18 | 66 | 1009.9 |
| 20260509021404 | 6 | 204 | 0.0 | 0.0 | 0.00 | 0.20 | 0.18 | 64 | 1009.9 |
| 20260509020903 | 7 | 204 | 0.0 | 0.0 | 0.00 | 0.20 | 0.18 | 65 | 1009.9 |
| 20260509020403 | 7 | 204 | 0.0 | 0.0 | 0.00 | 0.20 | 0.18 | 62 | 1009.9 |
| 20260509015903 | 7 | 204 | 0.0 | 0.0 | 0.00 | 0.20 | 0.18 | 61 | 1009.9 |
| 20260509015404 | 7 | 204 | 0.0 | 0.0 | 0.00 | 0.20 | 0.18 | 58 | 1009.9 |
| 20260509014904 | 7 | 204 | 0.0 | 0.0 | 0.00 | 0.23 | 0.18 | 57 | 1009.8 |
| 20260509014403 | 7 | 204 | 0.0 | 0.0 | 0.00 | 0.23 | 0.18 | 61 | 1009.8 |
| 20260509013403 | 8 | 204 | 0.0 | 0.0 | 0.00 | 0.23 | 0.18 | 59 | 1009.7 |
| 20260509012903 | 8 | 204 | 0.0 | 0.0 | 0.00 | 0.25 | 0.18 | 59 | 1009.7 |
| 20260509012403 | 8 | 204 | 0.0 | 0.0 | 0.00 | 0.25 | 0.18 | 60 | 1009.8 |
| 20260509011904 | 9 | 204 | 0.0 | 0.0 | 0.00 | 0.25 | 0.18 | 59 | 1009.7 |
| 20260509011404 | 9 | 204 | 0.0 | 1.6 | 0.00 | 0.25 | 0.18 | 56 | 1009.7 |
| 20260509010904 | 10 | 207 | 1.6 | 3.2 | 0.00 | 0.25 | 0.18 | 53 | 1009.7 |
| 20260509010404 | 10 | 207 | 1.6 | 3.2 | 0.00 | 0.25 | 0.18 | 55 | 1009.7 |
| 20260509005903 | 10 | 207 | 1.6 | 3.2 | 0.00 | 0.25 | 0.18 | 52 | 1009.7 |
| 20260509004903 | 10 | 205 | 0.0 | 1.6 | 0.00 | 0.25 | 0.18 | 52 | 1009.7 |
| 20260509003904 | 10 | 205 | 0.0 | 1.6 | 0.00 | 0.28 | 0.18 | 50 | 1009.5 |
| 20260509003404 | 11 | 205 | 0.0 | 1.6 | 0.00 | 0.30 | 0.18 | 50 | 1009.5 |
| 20260509002904 | 11 | 205 | 1.6 | 1.6 | 0.00 | 0.36 | 0.18 | 50 | 1009.4 |
| 20260509001904 | 11 | 205 | 0.0 | 1.6 | 0.00 | 0.38 | 0.18 | 50 | 1009.3 |
| 20260509000904 | 11 | 215 | 1.6 | 3.2 | 0.00 | 0.43 | 0.18 | 48 | 1009.2 |
| 20260509000404 | 12 | 248 | 0.0 | 1.6 | 0.00 | 0.46 | 0.18 | 47 | 1009.2 |
| 20260508235903 | 12 | 261 | 1.6 | 4.8 | 0.00 | 0.48 | 0.18 | 47 | 1009.3 |
| 20260508234403 | 12 | 251 | 3.2 | 9.7 | 0.00 | 0.53 | 0.18 | 47 | 1009.2 |
| 20260508233903 | 12 | 252 | 1.6 | 4.8 | 0.00 | 0.53 | 0.18 | 48 | 1009.2 |
| 20260508232903 | 12 | 264 | 3.2 | 9.7 | 0.00 | 0.53 | 0.18 | 48 | 1009.2 |
| 20260508231904 | 13 | 268 | 6.4 | 12.9 | 0.00 | 0.53 | 0.18 | 46 | 1009.1 |
| 20260508231404 | 13 | 281 | 3.2 | 4.8 | 0.00 | 0.53 | 0.18 | 48 | 1009.1 |
| 20260508230403 | 13 | 270 | 3.2 | 4.8 | 0.00 | 0.53 | 0.18 | 48 | 1009.1 |
| 20260508225903 | 13 | 255 | 4.8 | 8.0 | 0.00 | 0.53 | 0.18 | 47 | 1009.2 |
| 20260508225403 | 13 | 251 | 4.8 | 9.7 | 0.00 | 0.53 | 0.18 | 48 | 1009.2 |
| 20260508224403 | 13 | 255 | 4.8 | 8.0 | 0.00 | 0.53 | 0.18 | 53 | 1009.2 |
| 20260508223903 | 13 | 308 | 4.8 | 11.3 | 0.00 | 0.53 | 0.18 | 47 | 1009.2 |
| 20260508222904 | 13 | 286 | 4.8 | 11.3 | 0.00 | 0.53 | 0.18 | 51 | 1009.2 |
| 20260508222404 | 13 | 254 | 4.8 | 11.3 | 0.00 | 0.53 | 0.18 | 50 | 1009.2 |
| 20260508221904 | 12 | 303 | 4.8 | 9.7 | 0.00 | 0.53 | 0.18 | 52 | 1009.2 |
| 20260508221403 | 12 | 313 | 3.2 | 4.8 | 0.00 | 0.53 | 0.18 | 50 | 1009.2 |
| 20260508220904 | 12 | 249 | 1.6 | 4.8 | 0.00 | 0.53 | 0.18 | 51 | 1009.2 |
| 20260508220403 | 12 | 276 | 1.6 | 9.7 | 0.00 | 0.53 | 0.18 | 50 | 1009.3 |
| 20260508215403 | 13 | 332 | 4.8 | 8.0 | 0.00 | 0.53 | 0.18 | 49 | 1009.3 |
| 20260508214404 | 13 | 310 | 8.0 | 16.1 | 0.00 | 0.53 | 0.18 | 53 | 1009.4 |
| 20260508213903 | 13 | 330 | 4.8 | 8.0 | 0.00 | 0.53 | 0.18 | 47 | 1009.4 |
| 20260508213404 | 13 | 260 | 3.2 | 9.7 | 0.00 | 0.53 | 0.18 | 50 | 1009.4 |
| 20260508212904 | 13 | 255 | 3.2 | 11.3 | 0.00 | 0.53 | 0.18 | 49 | 1009.3 |
| 20260508212404 | 13 | 235 | 4.8 | 9.7 | 0.00 | 0.53 | 0.18 | 49 | 1009.3 |
| 20260508211904 | 13 | 273 | 1.6 | 9.7 | 0.00 | 0.53 | 0.18 | 50 | 1009.3 |
| 20260508211404 | 13 | 250 | 3.2 | 9.7 | 0.00 | 0.53 | 0.18 | 55 | 1009.3 |
| 20260508210904 | 13 | 300 | 8.0 | 12.9 | 0.00 | 0.53 | 0.18 | 51 | 1009.4 |
| 20260508210404 | 13 | 259 | 4.8 | 8.0 | 0.00 | 0.53 | 0.18 | 51 | 1009.4 |
| 20260508205904 | 12 | 207 | 6.4 | 11.3 | 0.00 | 0.53 | 0.18 | 51 | 1009.4 |
| 20260508205403 | 12 | 288 | 3.2 | 4.8 | 0.00 | 0.53 | 0.18 | 52 | 1009.4 |
| 20260508204903 | 12 | 299 | 1.6 | 4.8 | 0.00 | 0.53 | 0.18 | 50 | 1009.5 |
| 20260508204404 | 12 | 306 | 1.6 | 8.0 | 0.00 | 0.53 | 0.18 | 49 | 1009.5 |
| 20260508203904 | 12 | 208 | 1.6 | 4.8 | 0.00 | 0.53 | 0.18 | 50 | 1009.5 |
| 20260508203404 | 12 | 260 | 1.6 | 3.2 | 0.00 | 0.53 | 0.18 | 49 | 1009.6 |
| 20260508202904 | 12 | 286 | 3.2 | 4.8 | 0.00 | 0.53 | 0.18 | 50 | 1009.6 |
| 20260508202404 | 13 | 227 | 3.2 | 4.8 | 0.00 | 0.53 | 0.18 | 52 | 1009.7 |
| 20260508201904 | 13 | 258 | 4.8 | 8.0 | 0.00 | 0.53 | 0.18 | 50 | 1009.7 |
| 20260508201404 | 13 | 210 | 3.2 | 8.0 | 0.00 | 0.53 | 0.18 | 49 | 1009.7 |
| 20260508195904 | 12 | 148 | 1.6 | 4.8 | 0.00 | 0.53 | 0.18 | 51 | 1009.8 |
| 20260508194904 | 13 | 263 | 1.6 | 3.2 | 0.00 | 0.53 | 0.18 | 46 | 1010.0 |
| 20260508194404 | 13 | 172 | 0.0 | 3.2 | 0.00 | 0.53 | 0.18 | 45 | 1010.1 |
| 20260508193903 | 12 | 154 | 4.8 | 12.9 | 0.00 | 0.53 | 0.18 | 47 | 1010.2 |
| 20260508193404 | 12 | 267 | 4.8 | 9.7 | 0.00 | 0.53 | 0.18 | 48 | 1010.2 |
| 20260508192904 | 13 | 258 | 1.6 | 9.7 | 0.00 | 0.53 | 0.18 | 44 | 1010.3 |
| 20260508192403 | 13 | 223 | 3.2 | 8.0 | 0.00 | 0.53 | 0.18 | 48 | 1010.4 |
| 20260508191904 | 12 | 244 | 1.6 | 4.8 | 0.00 | 0.53 | 0.18 | 48 | 1010.4 |
| 20260508191404 | 12 | 208 | 6.4 | 11.3 | 0.00 | 0.53 | 0.18 | 46 | 1010.6 |
| 20260508190903 | 12 | 235 | 3.2 | 4.8 | 0.00 | 0.53 | 0.18 | 48 | 1010.6 |
| 20260508190404 | 12 | 301 | 9.7 | 16.1 | 0.00 | 0.53 | 0.18 | 47 | 1010.7 |
| 20260508185903 | 12 | 295 | 8.0 | 16.1 | 0.00 | 0.53 | 0.18 | 49 | 1010.7 |
| 20260508184903 | 12 | 275 | 3.2 | 19.3 | 0.00 | 0.53 | 0.18 | 52 | 1010.7 |
| 20260508184403 | 12 | 235 | 4.8 | 11.3 | 0.00 | 0.53 | 0.18 | 48 | 1010.7 |
| 20260508183903 | 12 | 272 | 3.2 | 12.9 | 0.00 | 0.53 | 0.18 | 48 | 1010.8 |
| 20260508183403 | 12 | 286 | 11.3 | 22.5 | 0.00 | 0.53 | 0.18 | 50 | 1010.8 |
| 20260508182903 | 12 | 288 | 11.3 | 19.3 | 0.00 | 0.53 | 0.18 | 47 | 1010.8 |
| 20260508181904 | 12 | 330 | 11.3 | 19.3 | 0.00 | 0.53 | 0.18 | 45 | 1010.8 |
| 20260508181404 | 12 | 325 | 4.8 | 16.1 | 0.00 | 0.53 | 0.18 | 55 | 1010.9 |
| 20260508180904 | 12 | 312 | 0.0 | 12.9 | 0.00 | 0.53 | 0.18 | 50 | 1010.9 |
| 20260508180404 | 12 | 103 | 4.8 | 9.7 | 0.00 | 0.53 | 0.18 | 48 | 1010.9 |
| 20260508175903 | 12 | 355 | 4.8 | 9.7 | 0.00 | 0.53 | 0.18 | 51 | 1011.0 |
| 20260508175403 | 12 | 288 | 4.8 | 16.1 | 0.00 | 0.53 | 0.18 | 49 | 1011.0 |
| 20260508174904 | 11 | 329 | 8.0 | 14.5 | 0.00 | 0.53 | 0.18 | 49 | 1011.0 |
| 20260508174405 | 11 | 325 | 11.3 | 20.9 | 0.00 | 0.53 | 0.18 | 54 | 1011.1 |